Weather History for Clintonville, WI

Change the Weather History Date:

Wednesday, January 16, 2013

  Actual Average Record
Temperature  
Mean Temperature 26 °F -  
Max Temperature 32 °F 24 °F 47 °F (1973)
Min Temperature 19 °F 2 °F -25 °F (1963)
Degree Days  
Heating Degree Days 40    
Moisture  
Dew Point 19 °F    
Average Humidity 74    
Maximum Humidity 87    
Minimum Humidity 51    
Precipitation  
Precipitation 0.00 in - - ()
Sea Level Pressure  
Sea Level Pressure 29.80 in    
Wind  
Wind Speed 11 mph (WSW)    
Max Wind Speed 18 mph    
Max Gust Speed 24 mph    
Visibility 10 miles    
Events Snow    
Averages and records for this station are not official NWS values.
T = Trace of Precipitation, MM = Missing Value Source: NWS Daily Summary

Daily Weather History Graph

Daily Weather History Graph

Search for Another Location

Airport:

Trip Planner

Search our weather history database for the weather conditions in past years. The results will help you decide how hot, cold, wet, or windy it might be!

Date:

Astronomy

Jan. 16, 2013 Rise Set
Actual Time 7:27 AM CST 4:42 PM CST
Civil Twilight 6:55 AM CST 5:14 PM CST
Nautical Twilight 6:19 AM CST 5:50 PM CST
Astronomical Twilight 5:44 AM CST 6:25 PM CST
Moon 9:48 AM CST (1/16) 10:50 PM CST (1/16)
Length of Visible Light 10h 19m
Length of Day
9h 14m
Waxing Crescent, 28% of the Moon is Illuminated
Jan 16
Waxing Crescent
Jan 18
First Quarter
Jan 26
Full
Feb 3
Last Quarter
Feb 10
New

Hourly Weather History & Observations

Time (CST) Temp. Windchill Dew Point Humidity Pressure Visibility Wind Dir Wind Speed Gust Speed Precip Events Conditions
12:15 AM 21.2 °F 10.9 °F 14.0 °F 74% 29.96 in 10.0 mi SW 9.2 mph - N/A   Clear
12:35 AM 21.2 °F 10.9 °F 14.0 °F 74% 29.94 in 10.0 mi SSW 9.2 mph - N/A   Clear
12:55 AM 19.4 °F 8.6 °F 14.0 °F 80% 29.93 in 10.0 mi SSW 9.2 mph - N/A   Clear
1:15 AM 19.4 °F 8.6 °F 14.0 °F 80% 29.92 in 10.0 mi SW 9.2 mph - N/A   Clear
1:35 AM 19.4 °F 7.9 °F 14.0 °F 80% 29.92 in 10.0 mi SSW 10.4 mph - N/A   Clear
1:55 AM 19.4 °F 8.6 °F 14.0 °F 80% 29.91 in 10.0 mi SSW 9.2 mph - N/A   Clear
2:15 AM 19.4 °F 9.5 °F 14.0 °F 80% 29.91 in 10.0 mi SSW 8.1 mph - N/A   Clear
2:35 AM 19.4 °F 7.9 °F 14.0 °F 80% 29.89 in 10.0 mi SSW 10.4 mph - N/A   Clear
2:55 AM 19.4 °F 8.6 °F 14.0 °F 80% 29.88 in 10.0 mi SSW 9.2 mph - N/A   Clear
3:15 AM 19.4 °F 7.9 °F 14.0 °F 80% 29.86 in 10.0 mi SSW 10.4 mph - N/A   Clear
3:35 AM 19.4 °F 6.6 °F 14.0 °F 80% 29.84 in 10.0 mi SSW 12.7 mph 17.3 mph N/A   Clear
3:55 AM 21.2 °F 8.9 °F 14.0 °F 74% 29.83 in 10.0 mi SSW 12.7 mph 19.6 mph N/A   Clear
4:15 AM 21.2 °F 8.3 °F 12.2 °F 68% 29.82 in 10.0 mi SSW 13.8 mph - N/A   Clear
4:35 AM 21.2 °F 8.3 °F 12.2 °F 68% 29.80 in 10.0 mi SSW 13.8 mph - N/A   Clear
4:55 AM 21.2 °F 7.3 °F 12.2 °F 68% 29.78 in 10.0 mi SSW 16.1 mph - N/A   Clear
5:15 AM 21.2 °F 7.3 °F 12.2 °F 68% 29.76 in 10.0 mi SSW 16.1 mph 20.7 mph N/A   Clear
5:35 AM 21.2 °F 7.8 °F 12.2 °F 68% 29.74 in 10.0 mi SSW 15.0 mph 19.6 mph N/A   Clear
5:55 AM 21.2 °F 8.3 °F 12.2 °F 68% 29.73 in 10.0 mi SSW 13.8 mph 18.4 mph N/A   Clear
6:15 AM 21.2 °F 7.8 °F 12.2 °F 68% 29.73 in 10.0 mi SW 15.0 mph 21.9 mph N/A   Scattered Clouds
6:35 AM 23.0 °F 11.7 °F 14.0 °F 68% 29.72 in 10.0 mi SSW 11.5 mph - N/A   Scattered Clouds
6:55 AM 23.0 °F 10.6 °F 14.0 °F 68% 29.71 in 10.0 mi SSW 13.8 mph 20.7 mph N/A   Mostly Cloudy
7:15 AM 23.0 °F 9.6 °F 14.0 °F 68% 29.71 in 10.0 mi SW 16.1 mph 23.0 mph N/A   Overcast
7:35 AM 23.0 °F 10.1 °F 14.0 °F 68% 29.70 in 10.0 mi SSW 15.0 mph 21.9 mph N/A   Overcast
7:55 AM 23.0 °F 9.2 °F 15.8 °F 74% 29.69 in 7.0 mi SSW 17.3 mph 20.7 mph N/A Snow Light Snow
8:15 AM 23.0 °F 9.6 °F 15.8 °F 74% 29.68 in 10.0 mi SSW 16.1 mph 19.6 mph N/A   Overcast
8:35 AM 23.0 °F 10.1 °F 15.8 °F 74% 29.68 in 10.0 mi SSW 15.0 mph 21.9 mph N/A Snow Light Snow
8:55 AM 23.0 °F 10.1 °F 17.6 °F 80% 29.68 in 3.0 mi SW 15.0 mph 24.2 mph N/A Snow Light Snow
9:15 AM 24.8 °F 14.0 °F 17.6 °F 74% 29.69 in 7.0 mi SW 11.5 mph 18.4 mph N/A Snow Light Snow
9:35 AM 26.6 °F 16.2 °F 19.4 °F 74% 29.68 in 10.0 mi SW 11.5 mph 20.7 mph N/A   Overcast
9:55 AM 26.6 °F 18.2 °F 19.4 °F 74% 29.67 in 7.0 mi WSW 8.1 mph - N/A Snow Light Snow
10:15 AM 28.4 °F 18.5 °F 21.2 °F 74% 29.68 in 10.0 mi WSW 11.5 mph 16.1 mph N/A   Overcast
10:35 AM 28.4 °F 16.6 °F 21.2 °F 74% 29.67 in 10.0 mi WSW 16.1 mph 21.9 mph N/A   Overcast
10:55 AM 28.4 °F 16.6 °F 21.2 °F 74% 29.67 in 10.0 mi WSW 16.1 mph 21.9 mph N/A   Overcast
11:15 AM 28.4 °F 18.0 °F 23.0 °F 80% 29.67 in 10.0 mi WSW 12.7 mph - N/A   Overcast
11:35 AM 28.4 °F 18.5 °F 23.0 °F 80% 29.66 in 10.0 mi WSW 11.5 mph - N/A   Overcast
11:55 AM 28.4 °F 17.0 °F 23.0 °F 80% 29.66 in 10.0 mi West 15.0 mph 18.4 mph N/A   Overcast
12:15 PM 30.2 °F 19.8 °F 23.0 °F 75% 29.66 in 10.0 mi West 13.8 mph 17.3 mph N/A   Overcast
12:35 PM 30.2 °F 20.2 °F 24.8 °F 80% 29.66 in 10.0 mi West 12.7 mph 16.1 mph N/A   Overcast
12:55 PM 30.2 °F 20.2 °F 24.8 °F 80% 29.66 in 10.0 mi West 12.7 mph 17.3 mph N/A   Overcast
1:15 PM 30.2 °F 21.3 °F 26.6 °F 86% 29.66 in 10.0 mi West 10.4 mph 16.1 mph N/A   Overcast
1:35 PM 30.2 °F 20.8 °F 26.6 °F 86% 29.66 in 10.0 mi West 11.5 mph 19.6 mph N/A   Overcast
1:55 PM 32.0 °F 23.6 °F 26.6 °F 80% 29.68 in 10.0 mi West 10.4 mph 18.4 mph N/A   Overcast
2:15 PM 32.0 °F 20.8 °F 26.6 °F 80% 29.70 in 10.0 mi West 17.3 mph 21.9 mph N/A   Overcast
2:35 PM 32.0 °F 20.5 °F 26.6 °F 80% 29.71 in 10.0 mi WNW 18.4 mph 24.2 mph N/A   Overcast
2:55 PM 32.0 °F 22.5 °F 26.6 °F 80% 29.71 in 10.0 mi WNW 12.7 mph - N/A   Overcast
3:15 PM 32.0 °F 23.0 °F 26.6 °F 80% 29.71 in 10.0 mi WNW 11.5 mph 17.3 mph N/A   Overcast
3:35 PM 32.0 °F 24.2 °F 26.6 °F 80% 29.72 in 10.0 mi WNW 9.2 mph - N/A   Overcast
3:55 PM 32.0 °F 24.2 °F 28.4 °F 87% 29.74 in 10.0 mi NW 9.2 mph - N/A   Overcast
4:15 PM 32.0 °F 23.6 °F 26.6 °F 80% 29.76 in 10.0 mi WNW 10.4 mph 16.1 mph N/A   Overcast
4:35 PM 32.0 °F 25.6 °F 26.6 °F 80% 29.78 in 10.0 mi WNW 6.9 mph - N/A   Overcast
4:55 PM 32.0 °F 26.4 °F 26.6 °F 80% 29.79 in 10.0 mi NW 5.8 mph - N/A   Overcast
5:15 PM 32.0 °F 27.5 °F 26.6 °F 80% 29.80 in 10.0 mi West 4.6 mph - N/A   Overcast
5:35 PM 32.0 °F 26.4 °F 26.6 °F 80% 29.81 in 10.0 mi West 5.8 mph - N/A   Overcast
5:55 PM 32.0 °F 26.4 °F 26.6 °F 80% 29.83 in 10.0 mi West 5.8 mph - N/A   Mostly Cloudy
6:15 PM 32.0 °F 25.6 °F 26.6 °F 80% 29.84 in 10.0 mi West 6.9 mph - N/A   Overcast
6:35 PM 32.0 °F 27.5 °F 26.6 °F 80% 29.86 in 10.0 mi West 4.6 mph - N/A   Overcast
6:55 PM 32.0 °F 27.5 °F 26.6 °F 80% 29.87 in 10.0 mi WNW 4.6 mph - N/A   Overcast
7:15 PM 32.0 °F 25.6 °F 26.6 °F 80% 29.89 in 10.0 mi WNW 6.9 mph - N/A   Mostly Cloudy
7:35 PM 32.0 °F 24.2 °F 23.0 °F 69% 29.90 in 10.0 mi NW 9.2 mph - N/A   Scattered Clouds
7:55 PM 30.2 °F 21.3 °F 21.2 °F 69% 29.91 in 10.0 mi NW 10.4 mph 16.1 mph N/A   Clear
8:15 PM 30.2 °F 22.6 °F 19.4 °F 64% 29.92 in 10.0 mi NW 8.1 mph - N/A   Clear
8:35 PM 30.2 °F 21.9 °F 19.4 °F 64% 29.93 in 10.0 mi NW 9.2 mph - N/A   Clear
8:55 PM 30.2 °F 22.6 °F 17.6 °F 60% 29.94 in 10.0 mi NNW 8.1 mph - N/A   Clear
9:15 PM 28.4 °F 19.1 °F 14.0 °F 55% 29.96 in 10.0 mi NNW 10.4 mph - N/A   Clear
9:35 PM 28.4 °F 19.1 °F 12.2 °F 51% 29.98 in 10.0 mi NW 10.4 mph 17.3 mph N/A   Clear
9:55 PM 26.6 °F 18.2 °F 12.2 °F 55% 30.00 in 10.0 mi NNW 8.1 mph - N/A   Clear
10:15 PM 26.6 °F 18.2 °F 12.2 °F 55% 30.01 in 10.0 mi NW 8.1 mph - N/A   Clear
10:35 PM 24.8 °F 19.1 °F 12.2 °F 59% 30.01 in 10.0 mi NNW 4.6 mph - N/A   Clear
10:55 PM 23.0 °F 13.9 °F 12.2 °F 63% 30.00 in 10.0 mi NNW 8.1 mph - N/A   Clear
11:15 PM 23.0 °F 12.4 °F 12.2 °F 63% 30.03 in 10.0 mi NNW 10.4 mph - N/A   Clear
11:35 PM 23.0 °F 13.1 °F 10.4 °F 59% 30.03 in 10.0 mi NNW 9.2 mph - N/A   Clear
11:55 PM 21.2 °F 10.1 °F 10.4 °F 63% 30.05 in 10.0 mi NW 10.4 mph - N/A   Clear